STARLINK-34530, 64491

Orbit data source: Space-Track

STARLINK-34530, 64491 is a payload satellite owned by SpaceX/Seattle (US) in LEO that was launched on Mon, 23 Jun 2025 UTC via an FALCON 9 launch vehicle from the Air Force Eastern Test Range (AFETR). Payload-class satellites include a variety of spacecraft equipped with specific instruments for various scientific and technological missions. These include communications satellites like Starlink; space stations such as the ISS; scientific satellites like the Hubble; Earth observation satellites from companies like Planet Labs, Umbra, and HawkEye 360; GPS; miniature CubeSats for education and research; and military/defense satellites.

Loading next visibility...
Identifier
64491, 2025-133V
Orbit
LEO
Country
Flag of USUS
Related business
Manufacturer
SpaceX/Seattle
Mission
Operational Commercial Communications
Bus & Motor
STARLINK V2MO, Unknown motor
Mass
575 kg wet, ~530 kg dry
Launch date (UTC)
2025-06-23 (1 year ago)
Launch vehicle
FALCON 9
Launch site
Air Force Eastern Test Range (AFETR)
Object type
Payload
Rocket body
Debris
Shape & HBR
Box + 2 Pan, 17.7 m
Radar Cross Section
36.964 m², Large (>1 m²)

Expand to show TLE details & history
Last TLE update: 1 day ago

TLE from 1 day ago
0 STARLINK-34530
1 64491U 25133V   26170.91585136  .00020341  00000-0  61176-3 0  9996
2 64491  53.1614 358.8445 0001484 102.6857 257.4312 15.34386799 56852
Epoch: 2026-06-19T21:58Z
TLE epoch observation values (Epoch: 2026-06-19T21:58:49.557Z)
Latitude
0.00001°
Longitude
121.00005°
Altitude
463.865 km
Speed
7.636 km/s
True Right ascension
23h 55m 22s
True Declination
0° 00' 00"
Sunlit
Object was in daylight at epoch
Visualization orbit readout
Latitude
Unknown
Longitude
Unknown
Altitude
Unknown
Speed
Unknown
Apparent Right ascension
Unknown
Apparent Declination
Unknown
Sunlit
N/A
Visualization observer readout
Local Sidereal Time
10:18:26
Azimuth
Unknown
Elevation
Unknown
Doppler factor
Unknown
Orbital elements
Apogee altitude
464.014 km
Perigee altitude
461.984 km
Semi-major axis
6,841.136 km
Eccentricity
0.00015
Inclination
53.1614°
RAAN
358.8445°
Arg. of periapsis
102.6857°
True anomaly
257.4146°
Mean anomaly
257.4312°
Eccentric anomaly
257.4229°
Mean motion
3.83575 °/min
Orbital period
93.85 mins
BSTAR
0.00061176
Loading maneuver chart data...
Computing Atmospheric mass density...
Loading historical data...
Loading historical data...
Loading historical data...
Loading historical data...
Loading historical data...
Loading historical data...
Loading historical data...

Documentation

Showing up to 5 results
|